Vorticity
12 13 13 13 11 10 8 7 6 6 6 6 5 4 4 3 3 3 3 4 4 6 7 9 9 10 10 10 9 10 11 13 14 16 17 19 20 21 21 21 20 18 15 12 10 8 7 6 5 4 3 3 3 4 4 2 0 2 6 12 14 12 11 12 17 19 20 22 22
12 13 13 12 10 8 7 5 5 5 5 5 4 3 3 3 3 3 4 5 6 7 8 10 10 10 10 8 7 7 7 8 9 10 11 13 14 16 18 20 21 22 21 20 18 15 13 10 8 6 5 4 4 4 5 5 4 4 7 12 14 13 12 11 13 14 16 18 21
12 13 12 11 9 7 5 4 4 4 4 4 3 3 3 3 4 5 5 6 7 9 10 11 11 10 9 6 5 4 4 4 4 4 5 6 8 10 12 14 17 20 22 23 23 22 20 17 14 12 10 9 8 8 10 11 10 10 10 12 13 12 10 9 10 11 11 12 14
12 12 11 9 7 5 4 3 3 3 3 2 2 3 4 4 6 7 8 8 10 11 12 12 11 10 8 5 3 3 2 2 2 2 2 3 4 5 7 9 11 13 16 19 21 23 23 23 21 19 18 17 16 17 18 20 19 17 15 13 12 10 7 6 7 9 10 9 10
12 11 9 7 5 4 3 2 2 1 2 2 3 4 5 7 9 10 10 11 12 12 12 12 11 9 6 4 3 2 2 3 3 4 4 4 5 6 7 8 9 10 11 13 16 19 21 23 23 24 23 23 23 24 25 26 25 22 18 16 13 9 6 5 5 8 10 10 10
11 9 7 5 3 2 2 1 1 1 1 3 5 7 9 10 12 12 13 13 13 13 12 12 10 8 5 3 3 3 3 4 4 5 6 6 7 7 8 10 10 11 11 11 12 14 16 19 20 21 22 22 23 23 24 26 26 23 20 18 15 11 7 5 6 8 11 13 13
9 7 5 3 2 1 1 0 1 2 4 6 9 11 12 14 14 14 14 14 13 13 13 11 9 6 4 3 3 3 4 4 5 5 5 5 5 6 7 8 10 11 12 12 12 13 14 14 15 16 16 17 18 19 20 22 23 22 21 20 17 14 10 8 8 10 14 19 18
7 5 3 2 1 1 0 1 2 5 7 10 12 14 15 16 15 15 15 15 14 13 11 9 7 5 4 3 3 3 4 4 4 4 4 3 4 5 6 7 8 10 12 14 13 13 13 13 12 12 12 13 14 15 16 18 20 21 22 21 20 17 15 13 12 13 18 24 23
5 3 2 1 1 1 2 3 6 9 12 14 16 17 17 17 16 16 15 14 13 11 9 7 5 4 3 3 3 3 3 3 3 3 3 3 4 6 7 8 9 11 13 15 15 14 13 12 11 10 10 10 12 13 14 15 17 20 22 23 22 21 20 18 17 18 21 26 24
3 2 1 1 2 3 5 8 11 13 16 17 18 18 17 16 16 15 14 12 9 7 6 5 4 4 3 3 3 3 3 3 4 4 5 6 8 9 10 11 11 12 14 16 15 14 12 11 10 9 9 9 10 11 12 13 15 17 20 21 22 22 22 21 20 20 21 24 23
2 2 2 2 4 7 10 13 15 17 18 18 18 17 16 15 14 13 11 8 6 5 5 4 4 4 4 4 4 4 5 6 7 8 9 10 12 13 14 13 13 14 16 17 15 13 11 10 9 8 8 9 9 10 11 12 13 15 16 18 19 19 20 19 19 19 20 22 21
2 3 4 6 9 12 15 17 18 18 18 18 17 16 15 13 11 9 6 5 4 4 4 5 5 5 5 5 6 7 8 10 12 13 13 14 15 15 15 14 14 16 17 17 13 11 10 9 9 9 9 10 10 10 11 12 13 14 15 15 15 16 17 17 18 18 19 21 22
4 6 9 12 15 17 18 18 18 18 17 16 15 13 11 9 7 5 4 4 5 5 5 6 6 7 7 8 9 10 12 14 15 16 16 16 16 15 15 14 15 17 18 16 11 9 9 9 9 10 10 11 12 12 12 13 14 15 15 15 15 15 15 15 16 18 19 21 23
9 12 14 17 18 18 18 17 16 15 14 12 11 9 7 5 4 4 4 5 6 7 7 7 8 9 10 11 12 13 15 16 17 17 17 16 15 14 14 14 16 18 19 16 11 10 10 10 11 11 12 13 14 14 14 15 16 17 17 17 17 17 16 16 16 18 19 21 23
15 17 19 19 18 17 15 14 13 11 9 8 6 5 4 4 5 5 6 7 8 8 8 9 10 11 12 13 14 15 16 17 18 18 16 15 13 13 13 15 18 20 19 16 13 12 12 12 12 12 13 14 14 15 15 16 17 17 18 19 19 18 18 17 18 18 20 21 24
19 20 19 17 15 13 11 10 8 7 5 4 4 4 5 6 6 7 8 8 9 9 10 10 11 12 13 14 15 16 17 18 17 16 15 13 12 13 15 18 20 20 18 16 14 14 14 13 13 13 13 13 14 14 15 16 16 17 17 17 18 18 18 19 19 19 20 22 24
20 18 15 12 10 8 7 6 5 4 4 4 5 6 7 7 8 9 9 9 9 10 11 11 12 13 13 15 16 16 17 17 16 15 13 13 13 15 17 20 20 18 17 15 15 15 14 14 13 12 12 12 13 13 13 14 14 14 14 14 15 16 16 17 18 19 20 21 23
15 13 10 7 6 5 4 3 4 4 5 6 7 8 8 9 9 10 10 10 10 10 11 11 12 13 14 15 15 16 16 16 14 13 13 13 15 17 19 20 18 16 15 15 15 15 14 12 11 11 11 11 11 11 11 11 11 11 11 10 11 11 12 13 14 15 17 18 19
9 7 5 4 3 3 3 4 5 6 7 8 8 9 9 10 10 10 10 10 11 11 11 11 13 14 15 15 15 15 15 15 13 13 13 14 16 17 18 17 15 14 14 14 14 13 12 10 10 9 10 10 10 10 10 10 9 9 9 8 8 8 8 8 9 10 11 12 13
4 3 3 3 3 4 5 6 7 8 9 9 9 10 10 10 10 10 10 10 10 11 12 12 13 14 14 15 15 15 14 14 13 13 13 14 16 17 16 15 13 13 13 12 11 11 10 9 9 9 9 10 10 10 10 10 9 9 8 8 7 7 6 6 6 6 7 7 8
3 3 3 4 5 6 7 8 9 9 9 10 10 10 9 9 9 9 10 9 10 11 12 13 14 14 14 14 14 14 14 13 13 13 14 15 15 15 14 12 11 11 11 10 9 9 8 8 8 9 9 10 10 10 10 9 9 8 8 7 7 7 6 6 6 5 5 5 5
3 4 5 6 7 8 9 9 9 9 10 10 9 9 8 8 8 9 9 9 10 11 13 13 14 14 14 14 14 13 13 12 13 13 14 14 14 13 12 11 10 9 9 8 8 8 8 8 8 8 9 9 9 9 9 8 8 7 7 7 6 6 6 6 6 6 5 5 5
5 6 7 8 9 9 9 9 9 10 9 9 8 8 7 7 8 8 8 9 11 12 13 14 14 14 14 14 14 13 12 12 12 12 13 13 12 11 10 9 9 8 8 8 8 8 8 8 8 8 8 8 8 7 7 7 6 6 6 6 6 5 6 6 6 6 6 6 6
7 8 9 9 9 9 9 9 10 9 9 8 7 7 7 7 7 8 9 10 11 12 13 14 15 15 15 14 14 13 12 12 12 12 11 11 10 9 9 8 8 8 8 8 8 8 8 7 7 7 7 6 6 6 6 6 5 5 5 5 5 5 5 6 6 6 6 6 7
9 9 10 10 9 9 9 9 9 8 7 6 6 6 6 7 7 8 9 10 12 13 14 14 15 15 15 15 14 13 12 12 11 11 10 9 9 8 8 8 8 9 8 8 8 7 7 7 6 6 6 6 5 5 5 5 5 5 5 5 6 6 6 7 7 7 8 8 8
10 10 10 9 9 9 9 8 8 7 6 6 6 6 6 7 7 8 9 11 12 14 15 15 15 15 15 14 13 12 11 11 10 9 8 8 7 8 8 8 9 9 9 8 8 7 6 6 6 6 5 5 5 5 5 5 5 6 6 6 7 8 8 9 9 10 11 11 11
10 10 10 9 9 8 8 8 7 6 6 5 6 6 6 7 8 9 10 12 13 14 15 15 16 16 15 14 12 11 10 10 9 8 7 7 7 7 8 9 9 9 8 8 7 7 6 6 5 5 5 5 5 5 5 6 6 7 8 9 10 10 11 12 13 13 14 14 15
10 10 9 9 8 8 8 7 6 5 5 5 6 6 6 7 8 10 11 13 13 14 15 17 17 16 15 14 12 11 9 8 7 7 7 7 7 7 8 8 8 8 8 7 7 6 6 5 5 5 5 5 5 6 7 8 9 10 11 12 13 14 15 16 16 16 17 17 17
10 10 9 8 8 8 7 6 5 5 5 5 6 6 7 8 9 10 11 12 14 15 17 17 16 16 15 14 12 10 8 7 7 6 7 7 7 8 8 8 8 7 7 6 6 6 5 5 5 5 5 6 7 8 9 10 12 13 14 15 16 17 17 18 18 18 18 18 17
10 9 9 8 8 7 6 5 5 5 5 5 6 6 7 8 9 10 12 14 16 17 17 16 15 15 15 13 11 9 7 7 6 6 7 7 8 8 8 8 7 6 6 6 6 5 5 5 5 6 7 8 9 10 12 14 15 16 17 18 19 19 19 18 18 18 17 16 15
9 9 9 8 7 6 5 4 5 5 5 5 6 6 7 8 10 12 13 15 17 17 17 16 16 15 14 11 9 8 7 6 6 6 7 8 8 8 7 7 6 6 6 5 5 5 5 6 7 8 9 10 12 13 15 16 18 18 19 19 19 18 18 17 16 15 14 13 12
9 9 8 7 6 5 4 5 5 5 5 5 6 6 8 9 11 12 14 16 16 16 17 18 16 14 12 10 9 7 6 6 6 7 7 8 8 7 7 6 6 6 5 5 5 6 6 7 8 10 11 13 14 16 17 18 18 19 18 18 17 16 15 14 13 12 11 10 10
9 8 7 6 5 4 4 4 5 5 5 6 6 7 8 10 11 13 14 16 17 17 17 16 15 13 11 9 8 7 6 6 7 7 7 7 7 7 7 6 6 6 5 5 6 6 7 9 10 12 13 15 16 17 18 18 18 17 16 15 14 13 11 10 9 9 9 8 9
9 8 7 5 4 4 4 4 5 5 5 6 6 7 9 10 11 13 15 16 17 18 17 16 14 12 10 8 7 6 6 7 7 7 7 7 7 7 6 6 6 6 6 6 6 8 9 11 12 14 15 16 17 17 17 17 16 14 13 12 10 9 8 8 8 7 8 8 8
8 7 6 4 4 4 4 5 5 5 5 6 7 8 9 10 12 14 15 16 16 17 16 16 13 11 9 8 7 6 6 7 7 7 7 7 7 7 6 6 6 6 6 6 7 9 10 12 14 15 16 16 17 17 16 15 14 12 11 9 8 7 7 7 7 7 8 8 9
7 6 5 4 4 4 4 5 5 5 6 6 7 8 9 11 13 14 15 15 16 16 15 14 12 10 9 7 7 7 7 7 7 7 7 7 7 7 6 6 6 6 6 7 8 9 11 13 14 15 16 16 16 16 15 13 12 11 9 8 8 7 7 7 7 7 8 9 10
6 5 4 4 4 4 5 5 5 6 6 7 8 9 10 11 13 14 15 16 16 16 15 13 11 10 8 7 7 7 7 7 7 7 7 7 7 7 6 6 6 6 6 7 8 9 11 13 14 15 16 16 16 15 14 13 11 10 9 8 8 7 7 7 7 8 8 9 10
6 5 4 4 4 5 5 5 6 6 7 7 8 9 10 11 13 14 15 16 16 15 14 12 11 10 8 7 7 7 7 7 7 7 7 7 7 7 6 6 6 6 6 7 8 9 11 13 14 15 15 15 15 14 13 12 11 10 9 9 8 8 8 8 8 8 9 10 10
5 5 4 4 5 5 5 5 6 6 7 8 8 9 10 11 13 14 15 16 16 15 13 12 11 9 8 7 7 7 7 7 7 7 7 7 7 7 7 6 6 6 6 7 8 9 11 12 14 14 15 14 14 13 12 11 11 10 9 9 8 8 8 8 8 9 10 10 11
5 5 4 4 5 5 6 6 6 6 7 8 8 9 10 12 13 14 14 15 16 15 13 12 10 9 8 7 7 7 7 7 7 7 7 7 7 7 7 6 6 6 6 6 7 8 10 12 13 13 13 13 12 11 11 10 10 9 8 8 8 8 8 9 9 10 11 11 11
5 5 4 4 5 5 6 6 6 6 6 7 8 9 10 12 13 13 14 15 15 15 13 12 10 9 8 7 7 7 7 7 7 7 7 7 7 7 7 7 6 6 6 6 7 8 9 10 11 12 12 11 10 10 9 9 8 8 7 7 7 7 8 9 10 12 13 13 13
Height
3073 3072 3071 3070 3069 3068 3066 3066 3064 3063 3062 3061 3059 3057 3056 3054 3052 3051 3049 3046 3045 3042 3040 3038 3036 3034 3031 3029 3027 3025 3022 3020 3017 3015 3012 3010 3008 3006 3004 3002 3000 2998 2996 2995 2993 2991 2989 2987 2985 2983 2981 2979 2977 2975 2972 2971 2969 2967 2965 2963 2961 2959 2957 2955 2953 2951 2949 2948 2946
3073 3072 3071 3070 3069 3068 3066 3066 3064 3063 3062 3061 3059 3057 3056 3054 3052 3050 3048 3046 3044 3042 3040 3038 3036 3034 3032 3030 3027 3025 3023 3020 3018 3015 3013 3011 3009 3006 3005 3002 3001 2998 2996 2994 2992 2990 2988 2986 2984 2982 2980 2978 2976 2974 2972 2970 2968 2966 2965 2963 2961 2959 2957 2955 2953 2951 2950 2948 2946
3073 3072 3071 3070 3069 3068 3067 3066 3065 3063 3062 3061 3059 3057 3056 3054 3052 3050 3048 3046 3044 3042 3040 3038 3036 3034 3032 3030 3027 3025 3023 3021 3018 3016 3013 3011 3009 3007 3005 3003 3001 2998 2996 2994 2992 2990 2988 2986 2984 2981 2980 2977 2975 2973 2971 2970 2968 2966 2964 2962 2960 2959 2957 2955 2953 2951 2950 2948 2946
3073 3072 3071 3070 3069 3068 3067 3066 3065 3063 3062 3061 3059 3057 3055 3053 3051 3050 3048 3046 3044 3042 3040 3038 3036 3034 3032 3030 3027 3025 3023 3021 3018 3016 3014 3011 3010 3007 3005 3003 3001 2999 2996 2994 2992 2990 2987 2985 2983 2981 2979 2977 2975 2972 2971 2969 2967 2965 2963 2961 2960 2958 2956 2955 2953 2951 2950 2948 2946
3073 3072 3071 3070 3069 3068 3067 3066 3064 3063 3062 3060 3058 3056 3055 3053 3051 3049 3047 3046 3044 3042 3040 3038 3036 3034 3032 3030 3028 3026 3023 3021 3019 3016 3014 3012 3010 3007 3005 3003 3001 2999 2996 2994 2992 2990 2987 2985 2983 2981 2978 2976 2974 2972 2970 2968 2966 2964 2962 2961 2959 2957 2956 2954 2953 2951 2950 2948 2946
3073 3072 3071 3070 3069 3068 3067 3066 3064 3063 3061 3060 3058 3056 3054 3052 3051 3049 3047 3045 3044 3042 3040 3038 3036 3034 3032 3030 3028 3026 3023 3021 3019 3016 3014 3012 3010 3008 3006 3003 3001 2999 2996 2994 2992 2990 2987 2985 2983 2981 2978 2976 2974 2972 2970 2968 2966 2964 2962 2961 2959 2957 2955 2953 2952 2951 2949 2948 2946
3073 3072 3071 3070 3069 3068 3066 3065 3064 3062 3061 3059 3057 3056 3054 3052 3050 3049 3047 3045 3044 3042 3040 3038 3036 3034 3032 3030 3028 3026 3023 3021 3019 3016 3014 3012 3010 3008 3006 3004 3001 2999 2997 2994 2992 2990 2988 2985 2983 2981 2978 2976 2974 2972 2970 2968 2966 2964 2962 2960 2958 2956 2955 2953 2951 2950 2948 2947 2946
3073 3072 3071 3070 3069 3068 3066 3065 3064 3062 3060 3059 3057 3055 3053 3052 3050 3049 3047 3046 3044 3042 3040 3038 3036 3034 3032 3030 3028 3026 3023 3021 3019 3017 3015 3012 3011 3008 3006 3004 3002 2999 2997 2995 2992 2990 2988 2986 2983 2981 2979 2976 2974 2972 2970 2968 2966 2964 2962 2960 2958 2956 2955 2953 2951 2949 2947 2946 2945
3073 3072 3071 3070 3069 3067 3066 3065 3063 3061 3060 3058 3056 3055 3053 3052 3050 3049 3047 3046 3044 3042 3040 3038 3036 3034 3032 3030 3028 3026 3023 3021 3019 3017 3015 3013 3011 3009 3006 3004 3002 3000 2997 2995 2993 2991 2988 2986 2984 2981 2979 2977 2975 2972 2971 2969 2966 2965 2962 2961 2958 2956 2954 2952 2951 2949 2947 2946 2945
3073 3072 3071 3070 3069 3067 3066 3064 3063 3061 3060 3058 3056 3055 3053 3052 3051 3049 3047 3046 3044 3042 3040 3038 3036 3034 3032 3030 3028 3026 3023 3021 3019 3017 3015 3013 3011 3009 3006 3004 3002 3000 2998 2995 2993 2991 2989 2986 2984 2982 2980 2978 2976 2973 2971 2969 2967 2965 2963 2961 2959 2956 2955 2953 2951 2949 2947 2946 2945
3073 3072 3071 3070 3069 3067 3066 3064 3063 3061 3060 3058 3056 3055 3054 3052 3051 3049 3048 3046 3044 3042 3040 3038 3036 3034 3032 3030 3028 3026 3023 3021 3019 3017 3015 3013 3011 3009 3006 3004 3002 3000 2998 2996 2994 2991 2989 2987 2985 2982 2980 2978 2976 2974 2972 2970 2968 2966 2964 2961 2959 2957 2955 2953 2951 2949 2947 2946 2945
3073 3072 3071 3070 3068 3067 3066 3064 3063 3061 3060 3058 3057 3056 3054 3053 3051 3050 3048 3046 3044 3042 3040 3038 3036 3034 3032 3030 3028 3026 3023 3021 3019 3017 3015 3013 3011 3009 3006 3005 3002 3001 2998 2996 2994 2992 2990 2988 2986 2983 2981 2979 2977 2975 2973 2971 2969 2966 2965 2962 2960 2958 2956 2953 2951 2950 2948 2946 2946
3073 3072 3071 3070 3068 3067 3066 3064 3063 3061 3060 3059 3058 3056 3055 3053 3052 3050 3048 3046 3044 3042 3040 3038 3036 3034 3032 3030 3028 3026 3023 3021 3019 3017 3015 3013 3011 3009 3007 3005 3003 3001 2999 2996 2995 2992 2991 2989 2986 2984 2982 2979 2977 2975 2973 2971 2969 2967 2965 2963 2961 2959 2956 2954 2952 2951 2949 2947 2946
3073 3072 3071 3070 3068 3067 3066 3065 3063 3062 3061 3060 3058 3057 3056 3054 3052 3050 3048 3046 3044 3042 3040 3038 3036 3034 3032 3030 3028 3026 3024 3021 3019 3017 3015 3013 3011 3009 3007 3006 3004 3001 3000 2997 2995 2993 2991 2989 2987 2985 2983 2980 2978 2976 2974 2972 2970 2968 2966 2964 2961 2959 2957 2955 2953 2951 2950 2948 2946
3073 3072 3071 3070 3069 3067 3066 3065 3064 3063 3061 3060 3059 3057 3056 3054 3052 3050 3048 3046 3044 3042 3040 3038 3036 3034 3032 3030 3028 3026 3024 3022 3020 3018 3016 3014 3012 3010 3008 3006 3004 3002 3000 2998 2996 2994 2992 2990 2988 2986 2984 2981 2979 2977 2975 2973 2971 2969 2966 2965 2962 2961 2959 2956 2955 2953 2951 2949 2947
3073 3072 3071 3070 3069 3068 3067 3066 3065 3064 3062 3061 3059 3058 3056 3054 3052 3050 3048 3046 3044 3042 3040 3038 3036 3034 3032 3030 3028 3026 3024 3022 3020 3018 3016 3014 3012 3011 3009 3007 3005 3003 3001 2999 2997 2995 2993 2991 2989 2987 2985 2983 2981 2978 2976 2974 2972 2970 2968 2966 2964 2962 2960 2958 2956 2954 2952 2950 2948
3073 3072 3071 3071 3070 3069 3067 3066 3065 3064 3063 3061 3059 3058 3056 3054 3052 3050 3048 3046 3044 3042 3040 3038 3036 3034 3032 3030 3028 3026 3025 3023 3021 3019 3017 3015 3013 3011 3010 3008 3006 3004 3002 3000 2998 2996 2994 2992 2990 2988 2986 2984 2982 2980 2978 2976 2974 2972 2970 2968 2966 2964 2962 2960 2958 2956 2954 2952 2950
3074 3073 3072 3071 3070 3069 3068 3067 3066 3064 3063 3061 3059 3057 3056 3054 3052 3050 3048 3046 3044 3042 3040 3038 3036 3034 3033 3031 3029 3027 3025 3023 3021 3019 3018 3016 3014 3012 3011 3009 3007 3005 3003 3001 2999 2997 2995 2993 2991 2990 2988 2986 2984 2982 2980 2978 2976 2974 2972 2970 2968 2966 2964 2962 2960 2958 2956 2954 2952
3074 3074 3073 3072 3071 3070 3069 3067 3066 3064 3063 3061 3059 3057 3056 3054 3051 3050 3048 3046 3044 3042 3040 3038 3036 3035 3033 3031 3030 3028 3026 3024 3022 3020 3018 3017 3015 3013 3011 3010 3008 3006 3004 3002 3000 2998 2996 2995 2993 2991 2989 2987 2986 2984 2982 2980 2978 2976 2974 2972 2970 2968 2966 2964 2962 2960 2958 2956 2954
3075 3074 3073 3072 3071 3070 3069 3067 3066 3065 3063 3061 3059 3057 3056 3053 3051 3050 3048 3046 3044 3042 3041 3039 3037 3036 3034 3032 3030 3028 3026 3025 3023 3021 3020 3018 3016 3014 3013 3011 3009 3007 3005 3003 3001 3000 2998 2996 2994 2993 2991 2989 2987 2985 2983 2981 2980 2978 2976 2974 2972 2970 2968 2966 2964 2962 2960 2958 2956
3076 3075 3074 3073 3072 3070 3069 3068 3066 3065 3063 3061 3059 3057 3055 3053 3052 3050 3048 3046 3045 3043 3041 3040 3038 3036 3035 3033 3031 3029 3027 3025 3024 3022 3021 3019 3017 3016 3014 3012 3010 3009 3007 3005 3003 3001 2999 2997 2996 2994 2992 2991 2989 2987 2985 2983 2981 2979 2977 2975 2973 2971 2969 2967 2966 2964 2962 2960 2958
3076 3075 3074 3073 3072 3071 3069 3068 3066 3065 3063 3061 3059 3057 3055 3054 3052 3050 3049 3047 3045 3043 3042 3040 3039 3037 3035 3033 3031 3030 3028 3026 3025 3023 3022 3020 3019 3017 3015 3014 3012 3010 3008 3006 3004 3002 3001 2999 2997 2995 2993 2991 2990 2988 2986 2984 2982 2980 2978 2976 2974 2972 2971 2969 2967 2965 2963 2961 2959
3077 3076 3075 3073 3072 3071 3069 3068 3066 3065 3063 3061 3059 3057 3056 3054 3052 3051 3049 3047 3046 3044 3042 3041 3039 3037 3036 3034 3032 3031 3029 3028 3026 3025 3023 3021 3020 3018 3017 3015 3014 3012 3010 3007 3006 3003 3001 3000 2998 2996 2995 2993 2991 2989 2987 2985 2983 2981 2979 2977 2976 2974 2972 2970 2968 2966 2964 2962 2961
3077 3076 3075 3074 3072 3071 3070 3068 3066 3065 3063 3061 3059 3058 3056 3055 3053 3051 3050 3048 3046 3045 3043 3041 3040 3038 3036 3035 3033 3032 3030 3029 3027 3026 3025 3023 3021 3020 3018 3017 3015 3013 3011 3008 3006 3004 3003 3001 2999 2997 2996 2994 2992 2990 2988 2986 2985 2983 2981 2979 2977 2975 2973 2971 2969 2967 2965 2964 2962
3077 3076 3075 3074 3073 3071 3070 3068 3067 3065 3063 3061 3060 3059 3057 3056 3054 3052 3051 3049 3047 3046 3044 3042 3041 3039 3037 3036 3034 3033 3031 3030 3029 3027 3026 3024 3023 3021 3020 3018 3016 3014 3011 3009 3007 3006 3004 3002 3000 2999 2997 2996 2994 2992 2990 2988 2986 2984 2982 2980 2978 2976 2974 2972 2971 2968 2966 2965 2963
3078 3076 3076 3074 3073 3072 3070 3069 3067 3065 3064 3062 3061 3059 3058 3056 3055 3053 3051 3050 3048 3046 3045 3043 3041 3040 3038 3037 3035 3034 3033 3031 3030 3029 3027 3026 3024 3022 3021 3019 3017 3015 3012 3010 3008 3007 3005 3003 3002 3000 2999 2997 2995 2993 2991 2989 2987 2985 2983 2981 2979 2977 2975 2973 2971 2969 2967 2966 2964
3078 3077 3076 3075 3073 3072 3071 3069 3067 3066 3065 3063 3062 3060 3058 3057 3055 3054 3052 3051 3049 3047 3046 3044 3042 3041 3039 3038 3036 3035 3034 3033 3031 3030 3028 3026 3025 3023 3022 3020 3018 3016 3014 3011 3010 3008 3007 3005 3003 3002 3000 2998 2996 2994 2992 2990 2988 2986 2984 2982 2980 2978 2976 2974 2972 2970 2968 2966 2965
3078 3077 3076 3075 3074 3072 3071 3069 3068 3067 3066 3064 3062 3061 3059 3058 3056 3055 3053 3051 3050 3048 3046 3045 3043 3041 3040 3039 3037 3036 3035 3034 3032 3031 3029 3028 3026 3024 3023 3021 3019 3017 3015 3013 3011 3010 3008 3006 3005 3003 3001 2999 2997 2995 2993 2991 2989 2987 2985 2982 2980 2978 2976 2974 2973 2971 2969 2967 2966
3079 3078 3077 3075 3074 3072 3071 3070 3069 3068 3066 3065 3063 3062 3060 3059 3057 3056 3054 3052 3051 3049 3047 3046 3044 3043 3041 3040 3039 3037 3036 3035 3033 3032 3031 3029 3027 3026 3024 3022 3020 3018 3016 3015 3013 3011 3010 3008 3006 3004 3002 3000 2998 2996 2994 2992 2990 2987 2985 2983 2981 2979 2977 2975 2973 2972 2970 2968 2966
3079 3078 3077 3076 3074 3073 3072 3071 3070 3068 3067 3066 3064 3062 3061 3060 3058 3056 3055 3053 3051 3050 3048 3046 3045 3044 3042 3041 3040 3038 3037 3036 3035 3033 3032 3030 3028 3027 3025 3023 3022 3020 3018 3016 3015 3013 3011 3009 3007 3005 3003 3001 2999 2997 2995 2992 2990 2988 2986 2984 2982 2980 2978 2976 2975 2973 2971 2969 2968
3080 3079 3077 3076 3075 3074 3073 3072 3071 3069 3068 3066 3065 3063 3062 3061 3059 3057 3056 3054 3052 3051 3049 3047 3046 3045 3043 3042 3041 3040 3038 3037 3036 3034 3033 3031 3030 3028 3026 3025 3023 3021 3020 3018 3016 3014 3012 3010 3008 3006 3004 3002 3000 2998 2995 2993 2991 2989 2987 2985 2983 2981 2979 2977 2976 2974 2972 2971 2969
3081 3079 3078 3077 3076 3075 3074 3073 3071 3070 3069 3067 3066 3065 3063 3061 3060 3058 3056 3055 3053 3051 3050 3048 3047 3046 3045 3043 3042 3041 3040 3038 3037 3036 3034 3032 3031 3029 3028 3026 3025 3023 3021 3019 3017 3015 3013 3011 3009 3007 3005 3003 3001 2998 2996 2994 2992 2990 2988 2986 2984 2982 2981 2979 2977 2975 2974 2972 2970
3081 3080 3079 3077 3076 3076 3075 3074 3072 3071 3070 3068 3067 3066 3064 3062 3061 3059 3057 3056 3054 3052 3051 3050 3048 3047 3046 3045 3043 3042 3041 3039 3038 3036 3035 3034 3032 3031 3029 3027 3026 3024 3022 3020 3018 3016 3014 3012 3010 3008 3006 3004 3002 3000 2997 2995 2993 2991 2989 2987 2986 2984 2982 2981 2979 2977 2975 2973 2971
3081 3080 3079 3078 3077 3076 3076 3075 3073 3072 3071 3069 3068 3066 3065 3063 3061 3060 3058 3057 3055 3054 3052 3051 3050 3048 3047 3046 3045 3043 3042 3041 3039 3038 3036 3035 3033 3032 3030 3029 3027 3025 3023 3021 3020 3018 3016 3013 3011 3009 3007 3005 3003 3001 2999 2997 2995 2993 2991 2989 2987 2986 2984 2982 2980 2978 2976 2974 2972
3082 3081 3080 3079 3078 3077 3076 3075 3074 3073 3072 3070 3069 3067 3066 3064 3063 3061 3059 3057 3056 3054 3053 3052 3051 3049 3048 3047 3046 3045 3043 3042 3040 3039 3037 3036 3035 3033 3031 3030 3028 3026 3025 3023 3021 3019 3016 3015 3012 3010 3008 3006 3004 3002 3000 2998 2996 2994 2992 2990 2989 2987 2985 2983 2981 2979 2977 2976 2974
3083 3082 3081 3080 3079 3078 3077 3076 3075 3074 3073 3071 3070 3068 3067 3065 3063 3062 3060 3058 3057 3056 3054 3053 3052 3051 3049 3048 3047 3046 3044 3043 3041 3040 3039 3037 3036 3034 3033 3031 3030 3028 3026 3024 3022 3020 3018 3016 3014 3012 3010 3008 3006 3003 3001 2999 2997 2995 2993 2991 2990 2988 2986 2984 2982 2980 2978 2976 2974
3083 3082 3081 3081 3080 3079 3078 3077 3076 3075 3074 3072 3071 3069 3068 3066 3064 3063 3061 3060 3058 3056 3055 3054 3053 3052 3051 3049 3048 3047 3046 3044 3043 3041 3040 3039 3037 3036 3034 3032 3031 3029 3027 3025 3023 3021 3019 3017 3015 3013 3011 3009 3007 3005 3003 3001 2999 2996 2995 2993 2991 2989 2987 2985 2983 2981 2979 2977 2975
3084 3083 3082 3081 3081 3080 3079 3078 3077 3076 3075 3073 3072 3070 3069 3067 3066 3064 3062 3061 3059 3058 3056 3055 3054 3053 3052 3051 3049 3048 3047 3046 3044 3043 3041 3040 3038 3037 3035 3034 3032 3030 3028 3026 3025 3023 3021 3019 3016 3015 3012 3011 3008 3006 3004 3002 3000 2998 2996 2994 2992 2990 2988 2986 2984 2982 2980 2978 2976
3085 3084 3083 3083 3082 3081 3080 3079 3078 3077 3076 3074 3073 3071 3070 3068 3066 3065 3063 3062 3060 3059 3058 3056 3055 3054 3053 3052 3051 3049 3048 3047 3045 3044 3042 3041 3039 3038 3036 3035 3033 3031 3030 3028 3026 3024 3022 3020 3018 3016 3014 3012 3010 3007 3005 3003 3001 2999 2997 2995 2993 2991 2989 2987 2985 2983 2981 2979 2976
3086 3085 3084 3084 3083 3082 3081 3080 3079 3078 3077 3075 3074 3072 3071 3069 3067 3066 3064 3063 3061 3060 3059 3058 3056 3055 3054 3053 3052 3050 3049 3048 3046 3045 3044 3042 3041 3039 3038 3036 3035 3033 3031 3029 3027 3026 3023 3021 3019 3017 3015 3013 3011 3009 3006 3004 3002 3000 2998 2996 2994 2992 2990 2988 2986 2984 2982 2980 2977
3086 3086 3085 3085 3084 3083 3082 3081 3080 3079 3078 3076 3075 3073 3072 3070 3069 3067 3066 3064 3063 3061 3060 3059 3058 3056 3055 3054 3053 3051 3050 3049 3048 3046 3045 3043 3042 3041 3039 3037 3036 3034 3032 3031 3029 3027 3025 3023 3021 3018 3016 3014 3012 3010 3008 3006 3003 3001 2999 2997 2995 2993 2991 2989 2987 2985 2982 2980 2978